Charles City, IA

5:39 AM CDT on March 27, 2017 (GMT -0500)
Charles City Municipal

Weather History for KCCY - April, 2014

Change the Weather History Date:

Wednesday, April 2, 2014

  Actual Average Record
Temperature  
Mean Temperature 38 °F -  
Max Temperature 48 °F 51 °F 80 °F (1981)
Min Temperature 28 °F 30 °F 15 °F (1962)
Degree Days  
Heating Degree Days 27    
Moisture  
Dew Point 28 °F    
Average Humidity 70    
Maximum Humidity 93    
Minimum Humidity 43    
Precipitation  
Precipitation 0.05 in - - ()
Sea Level Pressure  
Sea Level Pressure 30.07 in    
Wind  
Wind Speed 11 mph (ENE)    
Max Wind Speed 22 mph    
Max Gust Speed 29 mph    
Visibility 10 miles    
Events Rain    
Averages and records for this station are not official NWS values.
T = Trace of Precipitation, MM = Missing Value Source: NWS Daily Summary

Daily Weather History Graph

Daily Weather History Graph

Search for Another Location

Airport or City:

Trip Planner

Search our weather history database for the weather conditions in past years. The results will help you decide how hot, cold, wet, or windy it might be!

Date:

Astronomy

Apr. 02, 2014 Rise Set
Actual Time 6:50 AM CDT 7:38 PM CDT
Civil Twilight 6:21 AM CDT 8:06 PM CDT
Nautical Twilight 5:47 AM CDT 8:41 PM CDT
Astronomical Twilight 5:12 AM CDT 9:16 PM CDT
Moon 8:31 AM CDT (4/2) 11:06 PM CDT (4/2)
Length of Visible Light 13h 44m
Length of Day
12h 47m
Waxing Crescent, 10% of the Moon is Illuminated
Apr 2
Waxing Crescent
Apr 7
First Quarter
Apr 15
Full
Apr 22
Last Quarter
Apr 29
New

Hourly Weather History & Observations

Time (CDT) Temp. Windchill Dew Point Humidity Pressure Visibility Wind Dir Wind Speed Gust Speed Precip Events Conditions
12:15 AM 30.2 °F 22.6 °F 28.4 °F 93% 30.08 in 9.0 mi North 8.1 mph - N/A   Scattered Clouds
12:35 AM 30.2 °F 21.9 °F 28.4 °F 93% 30.08 in 8.0 mi North 9.2 mph - N/A   Clear
1:15 AM 30.2 °F 23.4 °F 28.4 °F 93% 30.10 in 10.0 mi North 6.9 mph - N/A   Clear
1:35 AM 30.2 °F 25.4 °F 28.4 °F 93% 30.11 in 10.0 mi North 4.6 mph - N/A   Clear
1:55 AM 30.2 °F 25.4 °F 28.4 °F 93% 30.12 in 10.0 mi North 4.6 mph - N/A   Mostly Cloudy
2:15 AM 30.2 °F 23.4 °F 28.4 °F 93% 30.12 in 10.0 mi North 6.9 mph - N/A   Overcast
2:35 AM 30.2 °F 21.3 °F 26.6 °F 86% 30.12 in 10.0 mi North 10.4 mph - N/A   Overcast
2:55 AM 30.2 °F 21.9 °F 26.6 °F 86% 30.12 in 10.0 mi North 9.2 mph - N/A   Mostly Cloudy
3:15 AM 30.2 °F 22.6 °F 26.6 °F 86% 30.11 in 10.0 mi North 8.1 mph - N/A   Clear
3:35 AM 28.4 °F 20.4 °F 26.6 °F 93% 30.11 in 10.0 mi NNW 8.1 mph - N/A   Clear
3:55 AM 28.4 °F 20.4 °F 26.6 °F 93% 30.10 in 10.0 mi North 8.1 mph - N/A   Clear
4:15 AM 28.4 °F 19.1 °F 26.6 °F 93% 30.10 in 10.0 mi North 10.4 mph - N/A   Clear
4:35 AM 28.4 °F 21.2 °F 26.6 °F 93% 30.11 in 10.0 mi North 6.9 mph - N/A   Clear
4:55 AM 28.4 °F 20.4 °F 26.6 °F 93% 30.11 in 10.0 mi North 8.1 mph - N/A   Clear
5:15 AM 28.4 °F 20.4 °F 26.6 °F 93% 30.11 in 10.0 mi NNE 8.1 mph - N/A   Clear
5:35 AM 28.4 °F 20.4 °F 24.8 °F 86% 30.11 in 10.0 mi NNE 8.1 mph - N/A   Clear
5:55 AM 28.4 °F 24.6 °F 26.6 °F 93% 30.13 in 10.0 mi NNE 3.5 mph - N/A   Clear
6:15 AM 28.4 °F - 24.8 °F 86% 30.15 in 10.0 mi Calm Calm - N/A   Clear
7:35 AM 28.4 °F 19.7 °F 24.8 °F 86% 30.15 in 9.0 mi NE 9.2 mph - N/A   Clear
7:55 AM 28.4 °F 19.1 °F 24.8 °F 86% 30.14 in 9.0 mi NE 10.4 mph - N/A   Clear
8:15 AM 28.4 °F 18.5 °F 24.8 °F 86% 30.14 in 10.0 mi ENE 11.5 mph - N/A   Clear
8:35 AM 30.2 °F 21.3 °F 24.8 °F 80% 30.14 in 10.0 mi ENE 10.4 mph - N/A   Partly Cloudy
8:55 AM 30.2 °F 20.8 °F 24.8 °F 80% 30.14 in 10.0 mi ENE 11.5 mph - N/A   Scattered Clouds
9:15 AM 30.2 °F 20.2 °F 26.6 °F 86% 30.14 in 10.0 mi East 12.7 mph - N/A   Partly Cloudy
9:35 AM 32.0 °F 23.6 °F 26.6 °F 80% 30.14 in 10.0 mi East 10.4 mph - N/A   Scattered Clouds
9:55 AM 32.0 °F 22.1 °F 26.6 °F 80% 30.15 in 10.0 mi East 13.8 mph - N/A   Partly Cloudy
10:15 AM 32.0 °F 22.5 °F 26.6 °F 80% 30.15 in 10.0 mi East 12.7 mph - N/A   Clear
10:35 AM 33.8 °F 25.3 °F 26.6 °F 75% 30.15 in 10.0 mi East 11.5 mph 17.3 mph N/A   Scattered Clouds
10:55 AM 33.8 °F 24.3 °F 26.6 °F 75% 30.14 in 10.0 mi East 13.8 mph - N/A   Partly Cloudy
11:35 AM 35.6 °F 27.5 °F 28.4 °F 75% 30.12 in 10.0 mi ENE 11.5 mph 18.4 mph N/A   Clear
11:55 AM 37.4 °F 29.3 °F 28.4 °F 70% 30.12 in 10.0 mi ENE 12.7 mph - N/A   Clear
12:15 PM 39.2 °F 30.5 °F 28.4 °F 65% 30.12 in 10.0 mi East 16.1 mph - N/A   Scattered Clouds
12:55 PM 41.0 °F 32.8 °F 28.4 °F 61% 30.11 in 10.0 mi East 16.1 mph - N/A   Scattered Clouds
1:15 PM 41.0 °F 32.8 °F 30.2 °F 65% 30.10 in 10.0 mi ENE 16.1 mph - N/A   Mostly Cloudy
1:35 PM 42.8 °F 37.0 °F 30.2 °F 61% 30.09 in 10.0 mi ENE 10.4 mph 19.6 mph N/A   Partly Cloudy
1:55 PM 42.8 °F 34.8 °F 28.4 °F 57% 30.08 in 10.0 mi ENE 17.3 mph - N/A   Partly Cloudy
2:35 PM 44.6 °F 38.4 °F 30.2 °F 57% 30.07 in 10.0 mi East 12.7 mph 19.6 mph N/A   Mostly Cloudy
2:55 PM 46.4 °F 39.5 °F 28.4 °F 50% 30.05 in 10.0 mi ENE 17.3 mph - N/A   Scattered Clouds
3:15 PM 46.4 °F 39.5 °F 28.4 °F 50% 30.04 in 10.0 mi East 17.3 mph - N/A   Scattered Clouds
3:35 PM 46.4 °F 39.2 °F 28.4 °F 50% 30.04 in 10.0 mi ENE 18.4 mph - N/A   Partly Cloudy
3:55 PM 48.2 °F - 28.4 °F 46% 30.03 in 10.0 mi East 17.3 mph - N/A   Mostly Cloudy
4:15 PM 48.2 °F - 28.4 °F 46% 30.03 in 10.0 mi East 16.1 mph - N/A   Scattered Clouds
4:35 PM 48.2 °F - 28.4 °F 46% 30.02 in 10.0 mi East 12.7 mph 21.9 mph N/A   Scattered Clouds
4:55 PM 48.2 °F - 28.4 °F 46% 30.02 in 10.0 mi East 17.3 mph - N/A   Mostly Cloudy
5:15 PM 48.2 °F - 28.4 °F 46% 30.01 in 10.0 mi ENE 16.1 mph 21.9 mph N/A   Overcast
5:35 PM 48.2 °F - 28.4 °F 46% 30.01 in 10.0 mi East 15.0 mph - N/A   Overcast
5:55 PM 48.2 °F - 28.4 °F 46% 30.00 in 10.0 mi East 13.8 mph 19.6 mph N/A   Overcast
6:15 PM 48.2 °F - 26.6 °F 43% 30.00 in 10.0 mi East 13.8 mph - N/A   Overcast
6:35 PM 46.4 °F 40.4 °F 26.6 °F 46% 30.00 in 10.0 mi East 13.8 mph 19.6 mph N/A   Overcast
6:55 PM 46.4 °F 40.7 °F 26.6 °F 46% 30.00 in 10.0 mi East 12.7 mph 19.6 mph N/A   Overcast
7:15 PM 46.4 °F 41.5 °F 26.6 °F 46% 30.00 in 10.0 mi East 10.4 mph - N/A   Overcast
7:35 PM 46.4 °F 40.1 °F 26.6 °F 46% 29.99 in 9.0 mi East 15.0 mph - N/A   Overcast
7:55 PM 46.4 °F 40.7 °F 26.6 °F 46% 29.99 in 10.0 mi ENE 12.7 mph - N/A   Overcast
8:15 PM 44.6 °F 38.4 °F 28.4 °F 53% 29.99 in 10.0 mi East 12.7 mph - N/A   Overcast
8:35 PM 44.6 °F 38.1 °F 28.4 °F 53% 29.98 in 10.0 mi East 13.8 mph - N/A   Overcast
8:55 PM 44.6 °F 37.8 °F 28.4 °F 53% 29.98 in 10.0 mi East 15.0 mph - N/A   Overcast
9:15 PM 44.6 °F 38.4 °F 28.4 °F 53% 29.98 in 10.0 mi East 12.7 mph - N/A   Overcast
9:35 PM 42.8 °F 35.4 °F 28.4 °F 57% 29.97 in 10.0 mi East 15.0 mph 21.9 mph N/A   Overcast
9:55 PM 42.8 °F 35.4 °F 30.2 °F 61% 29.98 in 6.0 mi East 15.0 mph 20.7 mph N/A Rain Light Rain
10:15 PM 41.0 °F 33.5 °F 32.0 °F 70% 29.97 in 10.0 mi East 13.8 mph - N/A   Overcast
10:35 PM 41.0 °F 32.8 °F 32.0 °F 70% 29.97 in 9.0 mi East 16.1 mph - N/A Rain Light Rain
10:55 PM 41.0 °F 31.9 °F 32.0 °F 70% 29.96 in 10.0 mi East 19.6 mph - 0.01 in   Overcast
11:15 PM 41.0 °F 31.4 °F 32.0 °F 70% 29.95 in 8.0 mi East 21.9 mph 28.8 mph N/A   Overcast
11:35 PM 41.0 °F 31.6 °F 32.0 °F 70% 29.95 in 5.0 mi East 20.7 mph 27.6 mph N/A Rain Heavy Rain
11:55 PM 39.2 °F 29.6 °F 32.0 °F 75% 29.95 in 5.0 mi East 19.6 mph 25.3 mph 0.04 in Rain Light Rain